TimeMDT,TemperatureF,Dew PointF,Humidity,Sea Level PressureIn,VisibilityMPH,Wind Direction,Wind SpeedMPH,Gust SpeedMPH,PrecipitationIn,Events,Conditions,WindDirDegrees,DateUTC
12:11 AM,55.4,53.6,94,30.31,10.0,East,8.1,-,N/A,,Overcast,90,2013-09-12 06:11:00
12:44 AM,55.4,53.6,94,30.30,10.0,East,12.7,-,N/A,,Overcast,80,2013-09-12 06:44:00
12:53 AM,55.0,54.0,96,30.08,10.0,East,13.8,-,N/A,,Overcast,80,2013-09-12 06:53:00
1:53 AM,55.0,54.0,96,30.07,10.0,East,3.5,-,N/A,,Overcast,80,2013-09-12 07:53:00
2:53 AM,55.0,54.0,96,30.07,10.0,ENE,5.8,-,N/A,,Overcast,70,2013-09-12 08:53:00
3:53 AM,54.0,53.1,97,30.07,10.0,East,11.5,20.7,N/A,,Overcast,80,2013-09-12 09:53:00
4:53 AM,54.0,53.1,97,30.08,10.0,East,12.7,23.0,N/A,,Overcast,80,2013-09-12 10:53:00
5:15 AM,53.6,53.6,100,30.29,10.0,ENE,15.0,21.9,N/A,,Overcast,70,2013-09-12 11:15:00
5:53 AM,54.0,52.0,93,30.08,10.0,ENE,17.3,23.0,N/A,,Overcast,70,2013-09-12 11:53:00
6:53 AM,54.0,52.0,93,30.10,10.0,ENE,10.4,-,N/A,,Overcast,70,2013-09-12 12:53:00
7:53 AM,54.0,53.1,97,30.15,10.0,ESE,4.6,-,N/A,,Overcast,120,2013-09-12 13:53:00
8:17 AM,53.6,51.8,94,30.35,10.0,SSE,3.5,-,N/A,,Overcast,160,2013-09-12 14:17:00
8:33 AM,50.0,48.2,94,30.36,2.0,SSW,28.8,38.0,0.09,Rain,Heavy Rain,200,2013-09-12 14:33:00
8:35 AM,48.2,46.4,93,30.36,1.8,SSW,24.2,38.0,0.11,Rain-Thunderstorm,Heavy Thunderstorms and Rain,210,2013-09-12 14:35:00
8:40 AM,48.2,46.4,93,30.35,1.8,SW,20.7,38.0,0.12,Rain-Thunderstorm,Thunderstorms and Rain,220,2013-09-12 14:40:00
8:44 AM,48.2,46.4,93,30.34,3.0,SW,20.7,32.2,0.14,Rain-Thunderstorm,Heavy Thunderstorms and Rain,220,2013-09-12 14:44:00
8:53 AM,50.0,46.9,89,30.17,4.0,SW,16.1,26.5,0.16,Rain-Thunderstorm,Light Thunderstorms and Rain,220,2013-09-12 14:53:00
9:12 AM,51.8,48.2,88,30.33,10.0,SW,12.7,-,0.00,,Mostly Cloudy,220,2013-09-12 15:12:00
9:53 AM,54.0,50.0,86,30.12,10.0,ENE,9.2,-,0.00,,Scattered Clouds,70,2013-09-12 15:53:00
10:53 AM,59.0,46.9,64,30.10,10.0,NE,5.8,-,N/A,,Partly Cloudy,40,2013-09-12 16:53:00
11:53 AM,63.0,52.0,67,30.08,10.0,North,11.5,19.6,N/A,,Clear,10,2013-09-12 17:53:00
12:37 PM,64.4,51.8,64,30.30,10.0,ENE,15.0,20.7,N/A,Thunderstorm,Partly Cloudy,70,2013-09-12 18:37:00
12:53 PM,62.1,52.0,70,30.06,10.0,ENE,16.1,26.5,N/A,Thunderstorm,Mostly Cloudy,70,2013-09-12 18:53:00
1:45 PM,55.4,46.4,72,30.30,10.0,West,9.2,19.6,N/A,Thunderstorm,Thunderstorm,270,2013-09-12 19:45:00
1:53 PM,54.0,48.0,80,30.10,9.0,West,16.1,25.3,N/A,Thunderstorm,Thunderstorm,260,2013-09-12 19:53:00
2:08 PM,51.8,50.0,94,30.31,3.0,West,9.2,-,0.10,Rain-Thunderstorm,Thunderstorms and Rain,260,2013-09-12 20:08:00
2:53 PM,54.0,48.9,83,30.08,10.0,NE,5.8,-,0.11,,Mostly Cloudy,50,2013-09-12 20:53:00
3:53 PM,60.1,48.0,64,30.04,10.0,ENE,3.5,-,N/A,,Partly Cloudy,60,2013-09-12 21:53:00
4:53 PM,63.0,50.0,63,29.99,10.0,NNE,11.5,-,N/A,,Scattered Clouds,20,2013-09-12 22:53:00
5:53 PM,63.0,50.0,63,30.00,10.0,NNE,8.1,-,N/A,,Partly Cloudy,30,2013-09-12 23:53:00
6:53 PM,59.0,48.9,69,30.01,10.0,ENE,13.8,-,N/A,,Clear,70,2013-09-13 00:53:00
7:53 PM,55.9,51.1,84,30.04,10.0,ENE,9.2,-,N/A,,Mostly Cloudy,70,2013-09-13 01:53:00
8:53 PM,54.0,50.0,86,30.06,10.0,East,13.8,-,N/A,,Scattered Clouds,90,2013-09-13 02:53:00
9:53 PM,53.1,48.9,86,30.05,10.0,East,12.7,21.9,N/A,,Mostly Cloudy,80,2013-09-13 03:53:00
10:53 PM,52.0,48.0,86,30.04,10.0,NE,5.8,-,N/A,,Clear,50,2013-09-13 04:53:00
11:23 PM,51.8,48.2,88,30.25,10.0,Calm,Calm,-,N/A,,Mostly Cloudy,0,2013-09-13 05:23:00
11:53 PM,53.1,48.9,86,30.01,10.0,NE,5.8,-,N/A,,Overcast,50,2013-09-13 05:53:00